{"data":{"norad_id":65030,"intl_designator":"2025-161R","name":"STARLINK-34614","alt_names":[],"object_type":"PAYLOAD","status":"ACTIVE","operator":null,"country":"US","launch_date":"2025-07-30","launch_site_code":"AFWTR","launch_vehicle":null,"mission":null,"orbit_class":"UNKNOWN","rcs_meters":null,"size_class":null,"mass_kg":null,"dimensions":null,"purposes":["comms"],"wikipedia_slug":null,"has_3d_model":false,"image_url":null,"decayed_at":null,"tle_current":{"epoch":"2026-05-25T03:51:31.684896Z","epoch_age_seconds":61195,"freshness":"FRESH","line1":"1 65030U 25161R   26145.16078339  .00017107  00000+0  58820-3 0  9995","line2":"2 65030  53.1606 299.3073 0001088  69.1453 290.9664 15.30210006 47033","mean_motion":15.30210006,"eccentricity":0.0001088,"inclination_deg":53.1606,"raan_deg":299.3073,"arg_perigee_deg":69.1453,"mean_anomaly_deg":290.9664,"bstar":0.0005882,"rev_number":4703,"period_min":94.104730354247,"perigee_km":474.43955201507,"apogee_km":475.93083492437,"semimajor_km":6853.3221934697,"source":"CELESTRAK","updated_at":"2026-05-25T13:38:20.671350Z"}}}